Zurück zum Katalog

ONEWEB-0680

AktivKommunikationPO
NORAD 56716·PAYLOAD·🇬🇧 United Kingdom

Gestartet May 20, 2023 von Vandenberg Space Force Base

Loading…

Nächste Überflüge (nächste 24 Stunden)

TLE

AktuellSource: CelesTrak SupGP

Epoche: Sep 14, 2026, 17:28 UTC

1 56716C 23068G   26257.72795556  .00001064  00000+0  25793-2 0  2577
2 56716  87.9283 226.1527 0001833  97.8995 297.9062 13.21824108    17

Verfolge ONEWEB-0680 in Echtzeit mit AllMySat

Download on the App Store